Crescent City, CA

4:02 AM PDT on June 25, 2018 (GMT -0700)
McNamara

Weather History for KCEC - October, 2017

Change the Weather History Date:

Saturday, October 7, 2017

  Actual Average Record
Temperature  
Mean Temperature 53 °F 54 °F  
Max Temperature 61 °F 61 °F 89 °F (1972)
Min Temperature 45 °F 47 °F 39 °F (1949)
Degree Days  
Heating Degree Days 12 11  
Month to date heating degree days 77  
Since 1 July heating degree days 881  
Cooling Degree Days 0 0  
Month to date cooling degree days 0  
Year to date cooling degree days 0  
Growing Degree Days 3 (Base 50)    
Moisture  
Dew Point 48 °F    
Average Humidity 84    
Maximum Humidity 100    
Minimum Humidity 67    
Precipitation  
Precipitation 0.00 in 0.07 in 1.06 in (1960)
Month to date precipitation 0.00 0.47  
Year to date precipitation 50.48 39.26  
Snow  
Snow 0.00 in - - ()
Month to date snowfall 0.0  
Since 1 July snowfall 0.0  
Since 1 September snowfall 0.0  
Snow Depth 0.00 in    
Sea Level Pressure  
Sea Level Pressure 30.09 in    
Wind  
Wind Speed 8 mph (NNW)    
Max Wind Speed 24 mph    
Max Gust Speed 34 mph    
Visibility 10 miles    
Events      
T = Trace of Precipitation, MM = Missing Value Source: NWS Daily Summary

Daily Weather History Graph

Daily Weather History Graph

Search for Another Location

Airport or City:

Astronomy

Oct. 07, 2017 Rise Set
Actual Time 7:20 AM PDT 6:47 PM PDT
Civil Twilight 6:52 AM PDT 7:15 PM PDT
Nautical Twilight 6:20 AM PDT 7:47 PM PDT
Astronomical Twilight 5:48 AM PDT 8:20 PM PDT
Moon 8:28 PM PDT (10/7) 9:22 AM PDT (10/7)
Length of Visible Light 12h 22m
Length of Day
11h 27m
Waning Gibbous, 95% of the Moon is Illuminated
Oct 7
Waning Gibbous
Oct 12
Last Quarter
Oct 19
New
Oct 27
First Quarter
Nov 3
Full

Hourly Weather History & Observations

Time (PDT) Temp. Windchill Dew Point Humidity Pressure Visibility Wind Dir Wind Speed Gust Speed Precip Events Conditions
12:56 AM 48.9 °F - 46.0 °F 90% 30.10 in 10.0 mi East 3.5 mph - N/A   Clear
1:56 AM 50.0 °F - 48.0 °F 93% 30.10 in 10.0 mi East 3.5 mph - N/A   Clear
2:56 AM 50.0 °F - 48.0 °F 93% 30.10 in 10.0 mi SE 4.6 mph - N/A   Clear
3:56 AM 50.0 °F - 48.0 °F 93% 30.09 in 10.0 mi SSE 5.8 mph - N/A   Clear
4:56 AM 48.9 °F - 48.0 °F 97% 30.09 in 9.0 mi Calm Calm - N/A   Clear
5:56 AM 46.0 °F 44.8 °F 46.0 °F 100% 30.09 in 10.0 mi SE 3.5 mph - N/A   Clear
6:56 AM 46.0 °F - 46.0 °F 100% 30.09 in 10.0 mi Calm Calm - N/A   Clear
7:11 AM 46.9 °F - 46.0 °F 97% 30.09 in 10.0 mi Calm Calm - N/A   Mostly Cloudy
7:36 AM 46.0 °F - 45.0 °F 96% 30.10 in 10.0 mi Calm Calm - N/A   Scattered Clouds
7:56 AM 46.9 °F - 46.0 °F 97% 30.10 in 10.0 mi ESE 3.5 mph - N/A   Clear
8:56 AM 53.1 °F - 48.9 °F 86% 30.11 in 10.0 mi SSE 4.6 mph - N/A   Clear
9:20 AM 54.0 °F - 48.9 °F 83% 30.10 in 10.0 mi South 3.5 mph - N/A   Mostly Cloudy
9:28 AM 55.0 °F - 50.0 °F 83% 30.10 in 10.0 mi South 3.5 mph - N/A   Scattered Clouds
9:56 AM 55.0 °F - 50.0 °F 83% 30.12 in 10.0 mi SSW 4.6 mph - N/A   Clear
10:56 AM 59.0 °F - 48.0 °F 67% 30.12 in 10.0 mi NNW 4.6 mph - N/A   Scattered Clouds
11:03 AM 59.0 °F - 48.9 °F 69% 30.11 in 10.0 mi NW 5.8 mph - N/A   Mostly Cloudy
11:47 AM 59.0 °F - 48.9 °F 69% 30.11 in 10.0 mi NNW 8.1 mph - N/A   Mostly Cloudy
11:56 AM 57.9 °F - 50.0 °F 75% 30.12 in 10.0 mi NNW 6.9 mph - N/A   Mostly Cloudy
12:07 PM 57.9 °F - 51.1 °F 78% 30.11 in 10.0 mi NNW 8.1 mph - N/A   Scattered Clouds
12:56 PM 60.1 °F - 53.1 °F 78% 30.10 in 10.0 mi NNW 10.4 mph - N/A   Clear
1:56 PM 59.0 °F - 52.0 °F 78% 30.09 in 10.0 mi NNW 17.3 mph 24.2 mph N/A   Clear
2:56 PM 60.1 °F - 51.1 °F 72% 30.07 in 10.0 mi NNW 20.7 mph 28.8 mph N/A   Clear
3:56 PM 59.0 °F - 50.0 °F 72% 30.06 in 10.0 mi NNW 21.9 mph 34.5 mph N/A   Clear
4:56 PM 57.0 °F - 50.0 °F 77% 30.06 in 10.0 mi NNW 19.6 mph 31.1 mph N/A   Clear
5:56 PM 55.9 °F - 48.0 °F 75% 30.04 in 10.0 mi NNW 24.2 mph 38.0 mph N/A   Clear
6:56 PM 54.0 °F - 48.9 °F 83% 30.02 in 9.0 mi NNW 18.4 mph 28.8 mph N/A   Clear
7:56 PM 55.0 °F - 46.9 °F 74% 30.03 in 10.0 mi NNW 20.7 mph 29.9 mph N/A   Clear
8:56 PM 54.0 °F - 48.0 °F 80% 30.05 in 10.0 mi NNW 19.6 mph 29.9 mph N/A   Clear
9:56 PM 53.1 °F - 46.9 °F 80% 30.07 in 10.0 mi NNW 16.1 mph 24.2 mph N/A   Clear
10:56 PM 53.1 °F - 46.9 °F 80% 30.09 in 10.0 mi North 15.0 mph 21.9 mph N/A   Clear
11:56 PM 53.1 °F - 46.0 °F 77% 30.09 in 10.0 mi North 11.5 mph - N/A   Clear